Weather History for KRYV - January, 2013

Change the Weather History Date:

Monday, January 21, 2013

  Actual Average Record
Temperature  
Mean Temperature 3 °F -  
Max Temperature 10 °F 27 °F 50 °F (1964)
Min Temperature -4 °F 12 °F -27 °F (1985)
Degree Days  
Heating Degree Days 62    
Moisture  
Dew Point -7 °F    
Average Humidity 63    
Maximum Humidity 82    
Minimum Humidity 49    
Precipitation  
Precipitation 0.00 in - - ()
Sea Level Pressure  
Sea Level Pressure 30.15 in    
Wind  
Wind Speed 11 mph (WNW)    
Max Wind Speed 20 mph    
Max Gust Speed 26 mph    
Visibility 10 miles    
Events      
Averages and records for this station are not official NWS values.
T = Trace of Precipitation, MM = Missing Value Source: NWS Daily Summary

Daily Weather History Graph

Daily Weather History Graph

Search for Another Location

Airport or City:

Trip Planner

Search our weather history database for the weather conditions in past years. The results will help you decide how hot, cold, wet, or windy it might be!

Date:

Astronomy

Jan. 21, 2013 Rise Set
Actual Time 7:20 AM CST 4:53 PM CST
Civil Twilight 6:48 AM CST 5:24 PM CST
Nautical Twilight 6:14 AM CST 5:58 PM CST
Astronomical Twilight 5:40 AM CST 6:32 PM CST
Moon 12:32 PM CST (1/21) 2:48 AM CST (1/21)
Length of Visible Light 10h 35m
Length of Day
9h 33m
Waxing Gibbous, 75% of the Moon is Illuminated
Jan 21
Waxing Gibbous
Jan 26
Full
Feb 3
Last Quarter
Feb 10
New
Feb 17
First Quarter

Hourly Weather History & Observations

Time (CST) Temp. Windchill Dew Point Humidity Pressure Visibility Wind Dir Wind Speed Gust Speed Precip Events Conditions
12:15 AM 9.5 °F -1.5 °F -1.3 °F 62% 30.14 in 10.0 mi West 6.9 mph - N/A   Overcast
12:35 AM 9.9 °F -2.2 °F -1.3 °F 61% 30.13 in 10.0 mi West 8.1 mph - N/A   Overcast
12:55 AM 10.0 °F -1.9 °F -1.1 °F 61% 30.13 in 10.0 mi West 8.1 mph - N/A   Overcast
1:15 AM 10.0 °F -1.9 °F -0.8 °F 62% 30.12 in 10.0 mi West 8.1 mph - N/A   Overcast
1:35 AM 10.2 °F -2.7 °F -0.9 °F 61% 30.12 in 10.0 mi WNW 9.2 mph - N/A   Overcast
1:55 AM 10.0 °F -1.9 °F 0.1 °F 64% 30.12 in 10.0 mi West 8.1 mph - N/A   Overcast
2:15 AM 10.0 °F -0.9 °F 0.3 °F 65% 30.12 in 10.0 mi West 6.9 mph - N/A   Overcast
2:35 AM 9.5 °F -5.2 °F 0.1 °F 66% 30.11 in 10.0 mi West 11.5 mph 18.4 mph N/A   Mostly Cloudy
2:55 AM 8.6 °F -5.5 °F 0.5 °F 70% 30.11 in 10.0 mi West 10.4 mph - N/A   Scattered Clouds
3:15 AM 8.2 °F -9.4 °F 0.5 °F 71% 30.11 in 10.0 mi West 16.1 mph 23.0 mph N/A   Scattered Clouds
3:35 AM 6.8 °F -9.3 °F -0.4 °F 72% 30.10 in 10.0 mi West 12.7 mph 17.3 mph N/A   Scattered Clouds
3:55 AM 6.6 °F -9.5 °F -0.8 °F 72% 30.10 in 10.0 mi WNW 12.7 mph 19.6 mph N/A   Scattered Clouds
4:15 AM 5.0 °F -9.1 °F 0.5 °F 82% 30.10 in 10.0 mi NNW 9.2 mph - N/A   Overcast
4:35 AM 5.0 °F -10.0 °F 0.5 °F 82% 30.10 in 5.0 mi WNW 10.4 mph - N/A   Haze
4:55 AM 4.1 °F -9.2 °F -0.4 °F 82% 30.10 in 10.0 mi NW 8.1 mph - N/A   Scattered Clouds
5:15 AM 4.1 °F -6.7 °F -0.6 °F 81% 30.10 in 10.0 mi NW 5.8 mph - N/A   Clear
5:35 AM 3.9 °F -6.9 °F -0.8 °F 81% 30.09 in 10.0 mi WNW 5.8 mph - N/A   Scattered Clouds
6:35 AM 4.1 °F -9.2 °F -0.2 °F 82% 30.09 in 7.0 mi WNW 8.1 mph - N/A   Overcast
6:55 AM 4.5 °F -13.7 °F -0.4 °F 80% 30.10 in 10.0 mi NW 15.0 mph 20.7 mph N/A   Overcast
7:15 AM 3.6 °F -13.4 °F -3.5 °F 73% 30.10 in 10.0 mi West 12.7 mph 23.0 mph N/A   Overcast
7:35 AM 3.0 °F -15.5 °F -3.8 °F 73% 30.11 in 7.0 mi WNW 15.0 mph - N/A   Overcast
7:55 AM 2.3 °F -15.7 °F -5.1 °F 71% 30.13 in 10.0 mi WNW 13.8 mph 21.9 mph N/A   Overcast
8:15 AM 1.8 °F -16.4 °F -5.6 °F 71% 30.14 in 10.0 mi NW 13.8 mph 18.4 mph N/A   Mostly Cloudy
9:15 AM 1.4 °F -18.2 °F -9.0 °F 62% 30.16 in 10.0 mi NW 16.1 mph 24.2 mph N/A   Clear
9:35 AM 1.2 °F -18.4 °F -9.2 °F 62% 30.17 in 10.0 mi NNW 16.1 mph 19.6 mph N/A   Scattered Clouds
9:55 AM 1.9 °F -17.5 °F -9.6 °F 59% 30.17 in 10.0 mi WNW 16.1 mph 21.9 mph N/A   Scattered Clouds
10:15 AM 1.6 °F -18.0 °F -9.6 °F 60% 30.17 in 10.0 mi WNW 16.1 mph 24.2 mph N/A   Mostly Cloudy
10:35 AM 0.1 °F -20.5 °F -8.7 °F 66% 30.17 in 5.0 mi WNW 17.3 mph 21.9 mph N/A   Haze
11:35 AM 2.3 °F -17.7 °F -9.9 °F 57% 30.16 in 10.0 mi NW 17.3 mph 24.2 mph N/A   Scattered Clouds
11:55 AM 2.1 °F -16.0 °F -10.5 °F 56% 30.16 in 10.0 mi WNW 13.8 mph 23.0 mph N/A   Scattered Clouds
12:15 PM 3.0 °F -16.1 °F -9.9 °F 55% 30.15 in 10.0 mi WNW 16.1 mph - N/A   Mostly Cloudy
12:35 PM 2.5 °F -15.5 °F -11.9 °F 51% 30.15 in 10.0 mi West 13.8 mph 20.7 mph N/A   Mostly Cloudy
12:55 PM 3.6 °F -17.1 °F -10.8 °F 51% 30.14 in 10.0 mi WNW 19.6 mph 24.2 mph N/A   Mostly Cloudy
1:15 PM 3.7 °F -16.4 °F -10.3 °F 52% 30.14 in 10.0 mi WNW 18.4 mph 25.3 mph N/A   Overcast
1:35 PM 3.7 °F -16.4 °F -9.6 °F 54% 30.14 in 10.0 mi West 18.4 mph 25.3 mph N/A   Overcast
2:15 PM 3.7 °F -15.2 °F -8.5 °F 57% 30.14 in 10.0 mi WNW 16.1 mph 21.9 mph N/A   Overcast
2:35 PM 3.4 °F -15.0 °F -10.5 °F 53% 30.14 in 10.0 mi West 15.0 mph 25.3 mph N/A   Overcast
2:55 PM 4.1 °F -13.4 °F -10.5 °F 51% 30.15 in 10.0 mi WNW 13.8 mph 25.3 mph N/A   Mostly Cloudy
3:15 PM 4.1 °F -13.4 °F -10.7 °F 51% 30.16 in 10.0 mi WNW 13.8 mph 23.0 mph N/A   Scattered Clouds
3:35 PM 4.1 °F -15.3 °F -10.8 °F 50% 30.15 in 10.0 mi WNW 17.3 mph 23.0 mph N/A   Scattered Clouds
3:55 PM 3.2 °F -15.9 °F -12.3 °F 49% 30.16 in 10.0 mi WNW 16.1 mph 23.0 mph N/A   Clear
4:15 PM 2.7 °F -17.8 °F -12.3 °F 50% 30.16 in 10.0 mi WNW 18.4 mph 26.5 mph N/A   Clear
4:35 PM 1.9 °F -17.5 °F -12.5 °F 51% 30.16 in 10.0 mi WNW 16.1 mph 23.0 mph N/A   Clear
4:55 PM 1.4 °F -16.9 °F -11.9 °F 54% 30.16 in 10.0 mi WNW 13.8 mph 18.4 mph N/A   Clear
5:35 PM 0.9 °F -14.2 °F -10.8 °F 58% 30.17 in 10.0 mi West 9.2 mph - N/A   Clear
5:55 PM 0.5 °F -15.6 °F -11.2 °F 58% 30.18 in 10.0 mi WNW 10.4 mph - N/A   Clear
6:15 PM 0.5 °F -15.6 °F -11.4 °F 57% 30.18 in 10.0 mi WNW 10.4 mph 18.4 mph N/A   Clear
6:55 PM 0.3 °F -12.6 °F -11.2 °F 58% 30.19 in 10.0 mi WNW 6.9 mph - N/A   Clear
7:15 PM 0.1 °F -14.0 °F -11.4 °F 58% 30.19 in 10.0 mi WNW 8.1 mph - N/A   Clear
7:35 PM -0.2 °F -15.5 °F -11.6 °F 59% 30.20 in 10.0 mi WNW 9.2 mph - N/A   Clear
8:15 PM -0.6 °F -19.4 °F -11.4 °F 60% 30.21 in 10.0 mi WNW 13.8 mph 19.6 mph N/A   Scattered Clouds
8:35 PM -1.3 °F -18.7 °F -11.2 °F 63% 30.21 in 10.0 mi NW 11.5 mph - N/A   Scattered Clouds
8:55 PM -1.3 °F -16.8 °F -11.2 °F 63% 30.22 in 10.0 mi NW 9.2 mph - N/A   Mostly Cloudy
9:35 PM -1.8 °F -19.4 °F -11.4 °F 64% 30.23 in 10.0 mi NW 11.5 mph 18.4 mph N/A   Scattered Clouds
9:55 PM -2.2 °F -18.0 °F -12.1 °F 63% 30.23 in 10.0 mi NW 9.2 mph - N/A   Clear
10:15 PM -2.6 °F -19.4 °F -11.9 °F 64% 30.24 in 10.0 mi NW 10.4 mph - N/A   Clear
10:35 PM -3.1 °F -21.8 °F -11.7 °F 67% 30.24 in 10.0 mi NW 12.7 mph - N/A   Clear
10:55 PM -3.3 °F -21.2 °F -12.1 °F 66% 30.24 in 10.0 mi NW 11.5 mph 17.3 mph N/A   Clear
11:35 PM -4.0 °F -24.5 °F -13.0 °F 65% 30.24 in 10.0 mi WNW 15.0 mph 20.7 mph N/A   Scattered Clouds
11:55 PM -4.0 °F -23.0 °F -11.7 °F 69% 30.25 in 10.0 mi NW 12.7 mph - N/A   Scattered Clouds